| time (UTC) | temp F | wind direction | speed MPH | gust MPH | rain 1hr in | rain 24hr in | rain mn in | humidity % | barometer mb |
| 20260506164855 | 0 | 166 | 1.0 | 3.0 | 0.00 | 0.01 | 0.01 | 1064.9 | |
| 20260506164351 | 0 | 86 | 2.0 | 6.0 | 0.00 | 0.01 | 0.01 | 1064.7 | |
| 20260506163849 | 0 | 36 | 3.0 | 3.0 | 0.00 | 0.01 | 0.01 | 1064.8 | |
| 20260506163343 | 0 | 62 | 3.0 | 6.0 | 0.00 | 0.01 | 0.01 | 1064.8 | |
| 20260506162838 | 0 | 46 | 5.0 | 9.0 | 0.00 | 0.01 | 0.01 | 1064.8 | |
| 20260506162337 | 0 | 300 | 5.0 | 6.0 | 0.00 | 0.01 | 0.01 | 1064.7 | |
| 20260506161834 | 0 | 54 | 4.0 | 6.0 | 0.00 | 0.01 | 0.01 | 1064.6 | |
| 20260506161331 | 0 | 32 | 2.0 | 5.0 | 0.00 | 0.01 | 0.01 | 1064.5 | |
| 20260506160829 | 0 | 59 | 3.0 | 6.0 | 0.00 | 0.01 | 0.01 | 1064.2 | |
| 20260506160325 | 0 | 351 | 4.0 | 5.0 | 0.00 | 0.01 | 0.01 | 1064.1 | |
| 20260506155824 | 0 | 149 | 1.0 | 3.0 | 0.00 | 0.01 | 0.01 | 1064.3 | |
| 20260506155320 | 0 | 68 | 3.0 | 5.0 | 0.00 | 0.01 | 0.01 | 1064.5 | |
| 20260506153433 | 0 | 348 | 3.0 | 7.0 | 0.00 | 0.01 | 0.01 | 1064.2 | |
| 20260506152930 | 0 | 49 | 2.0 | 3.0 | 0.00 | 0.01 | 0.01 | 1064.3 | |
| 20260506152427 | 0 | 91 | 2.0 | 3.0 | 0.00 | 0.01 | 0.01 | 1064.3 | |
| 20260506151926 | 0 | 283 | 2.0 | 7.0 | 0.00 | 0.01 | 0.01 | 1064.0 | |
| 20260506151422 | 0 | 350 | 4.0 | 5.0 | 0.00 | 0.01 | 0.01 | 1064.0 | |
| 20260506150920 | 0 | 312 | 3.0 | 5.0 | 0.00 | 0.01 | 0.01 | 1064.2 | |
| 20260506150415 | 0 | 78 | 2.0 | 7.0 | 0.00 | 0.01 | 0.01 | 1064.1 | |
| 20260506145913 | 0 | 73 | 1.0 | 3.0 | 0.00 | 0.01 | 0.01 | 1063.9 | |
| 20260506145409 | 0 | 114 | 2.0 | 5.0 | 0.00 | 0.01 | 0.01 | 1063.8 | |
| 20260506144907 | 0 | 249 | 3.0 | 6.0 | 0.00 | 0.01 | 0.01 | 1063.9 | |
| 20260506144402 | 0 | 48 | 2.0 | 8.0 | 0.00 | 0.01 | 0.01 | 1063.9 | |
| 20260506143901 | 0 | 86 | 3.0 | 5.0 | 0.00 | 0.01 | 0.01 | 1064.0 | |
| 20260506143358 | 0 | 334 | 3.0 | 6.0 | 0.00 | 0.01 | 0.01 | 1063.9 | |
| 20260506142856 | 0 | 23 | 3.0 | 5.0 | 0.00 | 0.01 | 0.01 | 1063.9 | |
| 20260506142354 | 0 | 44 | 2.0 | 6.0 | 0.00 | 0.01 | 0.01 | 1063.5 | |
| 20260506141852 | 0 | 47 | 1.0 | 3.0 | 0.00 | 0.01 | 0.01 | 1063.7 | |
| 20260506141350 | 0 | 39 | 4.0 | 6.0 | 0.00 | 0.01 | 0.01 | 1063.5 | |
| 20260506140848 | 0 | 75 | 0.0 | 2.0 | 0.00 | 0.01 | 0.01 | 1063.4 | |
| 20260506140344 | 0 | 102 | 2.0 | 5.0 | 0.00 | 0.01 | 0.01 | 1063.8 | |
| 20260506135841 | 0 | 313 | 2.0 | 5.0 | 0.00 | 0.01 | 0.01 | 1063.6 | |
| 20260506135338 | 0 | 310 | 4.0 | 5.0 | 0.00 | 0.01 | 0.01 | 1063.6 | |
| 20260506134834 | 0 | 133 | 0.0 | 2.0 | 0.00 | 0.01 | 0.01 | 1063.7 | |
| 20260506134331 | 0 | 325 | 5.0 | 6.0 | 0.00 | 0.01 | 0.01 | 1063.8 | |
| 20260506133828 | 0 | 331 | 3.0 | 5.0 | 0.00 | 0.01 | 0.01 | 1064.0 | |
| 20260506133324 | 0 | 106 | 1.0 | 2.0 | 0.00 | 0.01 | 0.01 | 1063.9 | |
| 20260506132821 | 0 | 104 | 1.0 | 2.0 | 0.00 | 0.01 | 0.01 | 1064.1 | |
| 20260506132318 | 0 | 58 | 3.0 | 3.0 | 0.00 | 0.01 | 0.01 | 1063.8 | |
| 20260506131816 | 0 | 74 | 2.0 | 3.0 | 0.00 | 0.01 | 0.01 | 1063.9 | |
| 20260506131312 | 0 | 86 | 1.0 | 5.0 | 0.00 | 0.01 | 0.01 | 1063.9 | |
| 20260506130809 | 0 | 358 | 2.0 | 2.0 | 0.00 | 0.01 | 0.01 | 1063.7 | |
| 20260506130306 | 0 | 103 | 2.0 | 2.0 | 0.00 | 0.01 | 0.01 | 1063.8 | |
| 20260506125804 | 0 | 133 | 0.0 | 2.0 | 0.00 | 0.01 | 0.01 | 1063.7 | |
| 20260506125305 | 0 | 86 | 3.0 | 5.0 | 0.00 | 0.01 | 0.01 | 1063.9 | |
| 20260506124800 | 0 | 131 | 1.0 | 2.0 | 0.00 | 0.01 | 0.01 | 1064.0 | |
| 20260506124257 | 0 | 114 | 1.0 | 6.0 | 0.00 | 0.01 | 0.01 | 1063.7 | |
| 20260506123754 | 0 | 3 | 2.0 | 3.0 | 0.00 | 0.01 | 0.01 | 1063.6 | |
| 20260506123253 | 0 | 310 | 1.0 | 2.0 | 0.00 | 0.01 | 0.01 | 1063.6 | |
| 20260506122749 | 0 | 69 | 1.0 | 3.0 | 0.00 | 0.01 | 0.01 | 1063.8 | |
| 20260506122246 | 0 | 337 | 3.0 | 5.0 | 0.00 | 0.01 | 0.01 | 1063.7 | |
| 20260506121745 | 0 | 148 | 1.0 | 2.0 | 0.00 | 0.01 | 0.01 | 1063.7 | |
| 20260506121241 | 0 | 236 | 1.0 | 2.0 | 0.00 | 0.01 | 0.01 | 1063.8 | |
| 20260506120738 | 0 | 148 | 1.0 | 1.0 | 0.00 | 0.01 | 0.01 | 1063.7 | |
| 20260506120236 | 0 | 102 | 1.0 | 2.0 | 0.00 | 0.01 | 0.01 | 1063.3 | |
| 20260506115734 | 0 | 158 | 1.0 | 2.0 | 0.00 | 0.01 | 0.01 | 1063.3 | |
| 20260506115232 | 0 | 164 | 1.0 | 2.0 | 0.00 | 0.01 | 0.01 | 1063.4 | |
| 20260506114729 | 0 | 324 | 3.0 | 3.0 | 0.00 | 0.01 | 0.01 | 1062.9 | |
| 20260506114227 | 0 | 116 | 0.0 | 2.0 | 0.00 | 0.01 | 0.01 | 1062.7 | |
| 20260506113725 | 0 | 101 | 2.0 | 6.0 | 0.00 | 0.01 | 0.01 | 1062.7 | |
| 20260506113222 | 0 | 70 | 3.0 | 5.0 | 0.00 | 0.01 | 0.01 | 1062.2 | |
| 20260506112718 | 0 | 321 | 4.0 | 7.0 | 0.00 | 0.01 | 0.01 | 1062.3 | |
| 20260506112216 | 0 | 8 | 2.0 | 5.0 | 0.00 | 0.01 | 0.01 | 1062.4 | |
| 20260506111713 | 0 | 98 | 1.0 | 5.0 | 0.00 | 0.01 | 0.01 | 1062.6 | |
| 20260506111212 | 0 | 6 | 3.0 | 3.0 | 0.00 | 0.01 | 0.01 | 1062.4 | |
| 20260506110708 | 0 | 306 | 3.0 | 6.0 | 0.00 | 0.01 | 0.01 | 1062.5 | |
| 20260506110206 | 0 | 82 | 2.0 | 5.0 | 0.00 | 0.01 | 0.01 | 1062.5 | |
| 20260506105702 | 0 | 334 | 4.0 | 5.0 | 0.00 | 0.01 | 0.01 | 1062.5 | |
| 20260506105159 | 0 | 186 | 1.0 | 3.0 | 0.00 | 0.01 | 0.01 | 1062.4 | |
| 20260506104657 | 0 | 321 | 2.0 | 2.0 | 0.00 | 0.01 | 0.01 | 1061.8 | |
| 20260506104155 | 0 | 148 | 1.0 | 2.0 | 0.00 | 0.01 | 0.01 | 1062.2 | |
| 20260506103651 | 0 | 315 | 3.0 | 3.0 | 0.00 | 0.01 | 0.01 | 1061.8 | |
| 20260506103148 | 0 | 99 | 2.0 | 3.0 | 0.00 | 0.01 | 0.01 | 1061.7 | |
| 20260506102647 | 0 | 324 | 3.0 | 3.0 | 0.00 | 0.01 | 0.01 | 1062.2 | |
| 20260506102144 | 0 | 225 | 2.0 | 2.0 | 0.00 | 0.01 | 0.01 | 1062.1 | |
| 20260506101640 | 0 | 32 | 2.0 | 2.0 | 0.00 | 0.01 | 0.01 | 1062.1 | |
| 20260506101137 | 0 | 158 | 1.0 | 2.0 | 0.00 | 0.01 | 0.01 | 1062.2 | |
| 20260506100636 | 0 | 60 | 1.0 | 2.0 | 0.00 | 0.01 | 0.01 | 1062.0 | |
| 20260506100133 | 0 | 126 | 1.0 | 1.0 | 0.00 | 0.01 | 0.01 | 1062.1 | |
| 20260506095632 | 0 | 129 | 1.0 | 2.0 | 0.00 | 0.01 | 0.01 | 1062.0 | |
| 20260506095128 | 0 | 154 | 1.0 | 1.0 | 0.00 | 0.01 | 0.01 | 1062.0 | |
| 20260506094626 | 0 | 236 | 2.0 | 2.0 | 0.00 | 0.01 | 0.01 | 1061.7 | |
| 20260506094123 | 0 | 88 | 2.0 | 2.0 | 0.00 | 0.01 | 0.01 | 1061.4 | |
| 20260506093622 | 0 | 138 | 2.0 | 2.0 | 0.00 | 0.01 | 0.01 | 1061.2 | |
| 20260506093119 | 0 | 183 | 1.0 | 2.0 | 0.00 | 0.01 | 0.01 | 1060.7 | |
| 20260506092617 | 0 | 105 | 1.0 | 3.0 | 0.00 | 0.01 | 0.01 | 1059.7 | |
| 20260506092114 | 0 | 60 | 2.0 | 2.0 | 0.00 | 0.01 | 0.01 | 1060.3 | |
| 20260506091612 | 0 | 123 | 0.0 | 1.0 | 0.00 | 0.01 | 0.01 | 1059.6 | |
| 20260506091109 | 0 | 108 | 1.0 | 2.0 | 0.00 | 0.01 | 0.01 | 1060.8 | |
| 20260506090607 | 0 | 99 | 1.0 | 2.0 | 0.00 | 0.01 | 0.01 | 1060.9 | |
| 20260506085559 | 0 | 101 | 1.0 | 1.0 | 0.00 | 0.01 | 0.01 | 1060.3 | |
| 20260506085055 | 0 | 107 | 1.0 | 2.0 | 0.00 | 0.01 | 0.01 | 1059.5 | |
| 20260506084553 | 0 | 125 | 0.0 | 1.0 | 0.00 | 0.01 | 0.01 | 1059.9 | |
| 20260506084049 | 0 | 105 | 1.0 | 2.0 | 0.00 | 0.01 | 0.01 | 1059.4 | |
| 20260506083546 | 0 | 72 | 1.0 | 3.0 | 0.00 | 0.01 | 0.01 | 1059.4 | |
| 20260506083043 | 0 | 84 | 2.0 | 2.0 | 0.00 | 0.01 | 0.01 | 1060.2 | |
| 20260506082540 | 0 | 107 | 2.0 | 2.0 | 0.00 | 0.01 | 0.01 | 1060.0 | |
| 20260506082036 | 0 | 80 | 1.0 | 1.0 | 0.00 | 0.01 | 0.01 | 1059.9 | |
| 20260506081534 | 0 | 108 | 0.0 | 2.0 | 0.00 | 0.01 | 0.01 | 1060.2 | |
| 20260506081031 | 0 | 62 | 2.0 | 3.0 | 0.00 | 0.01 | 0.01 | 1059.9 | |
| 20260506080529 | 0 | 93 | 1.0 | 2.0 | 0.00 | 0.01 | 0.01 | 1060.1 | |
| 20260506073512 | 0 | 331 | 5.0 | 6.0 | 0.00 | 0.01 | 0.01 | 1061.1 | |
| 20260506073009 | 0 | 107 | 1.0 | 2.0 | 0.00 | 0.01 | 0.01 | 1061.0 | |
| 20260506072506 | 0 | 98 | 2.0 | 3.0 | 0.00 | 0.01 | 0.01 | 1061.1 | |
| 20260506071959 | 0 | 322 | 3.0 | 3.0 | 0.00 | 0.01 | 0.01 | 1060.8 | |
| 20260506071457 | 0 | 101 | 1.0 | 5.0 | 0.00 | 0.01 | 0.01 | 1061.3 | |
| 20260506070954 | 0 | 71 | 2.0 | 2.0 | 0.00 | 0.01 | 0.01 | 1061.5 | |
| 20260506070450 | 0 | 279 | 1.0 | 2.0 | 0.00 | 0.01 | 0.01 | 1061.3 | |
| 20260506062422 | 0 | 85 | 1.0 | 1.0 | 0.00 | 0.01 | 0.01 | 1060.4 | |
| 20260506061918 | 0 | 111 | 0.0 | 1.0 | 0.00 | 0.01 | 0.01 | 1060.4 | |
| 20260506061415 | 0 | 129 | 0.0 | 0.0 | 0.00 | 0.01 | 0.01 | 1060.6 | |
| 20260506060913 | 0 | 134 | 0.0 | 1.0 | 0.00 | 0.01 | 0.01 | 1060.3 | |
| 20260506060411 | 0 | 125 | 0.0 | 2.0 | 0.00 | 0.01 | 0.01 | 1060.7 | |
| 20260506051342 | 0 | 87 | 1.0 | 2.0 | 0.00 | 0.00 | 0.00 | 1060.0 | |
| 20260506050840 | 0 | 92 | 1.0 | 2.0 | 0.00 | 0.00 | 0.00 | 1059.7 | |
| 20260506050337 | 0 | 125 | 2.0 | 3.0 | 0.00 | 0.00 | 0.00 | 1059.9 | |
| 20260506044827 | 0 | 68 | 2.0 | 3.0 | 0.00 | 0.61 | 0.61 | 1059.7 | |
| 20260506044325 | 0 | 80 | 1.0 | 2.0 | 0.00 | 0.61 | 0.61 | 1060.0 | |
| 20260506043822 | 0 | 81 | 1.0 | 2.0 | 0.00 | 0.61 | 0.61 | 1059.8 | |
| 20260506043319 | 0 | 125 | 0.0 | 1.0 | 0.00 | 0.61 | 0.61 | 1059.9 | |
| 20260506042818 | 0 | 119 | 1.0 | 2.0 | 0.00 | 0.61 | 0.61 | 1059.7 | |
| 20260506042317 | 0 | 112 | 0.0 | 3.0 | 0.00 | 0.61 | 0.61 | 1059.9 | |
| 20260506041815 | 0 | 38 | 3.0 | 3.0 | 0.00 | 0.61 | 0.61 | 1059.4 | |
| 20260506041311 | 0 | 63 | 1.0 | 3.0 | 0.00 | 0.61 | 0.61 | 1059.9 | |
| 20260506040809 | 0 | 117 | 1.0 | 1.0 | 0.00 | 0.61 | 0.61 | 1059.9 | |
| 20260506040306 | 0 | 110 | 2.0 | 2.0 | 0.00 | 0.61 | 0.61 | 1059.9 | |
| 20260506035802 | 0 | 87 | 1.0 | 3.0 | 0.00 | 0.61 | 0.61 | 1059.8 | |
| 20260506035259 | 0 | 126 | 0.0 | 2.0 | 0.00 | 0.61 | 0.61 | 1059.8 | |
| 20260506034757 | 0 | 111 | 0.0 | 2.0 | 0.05 | 0.61 | 0.61 | 1059.6 | |
| 20260506034254 | 0 | 91 | 1.0 | 3.0 | 0.12 | 0.61 | 0.61 | 1059.7 | |
| 20260506033750 | 0 | 65 | 2.0 | 3.0 | 0.07 | 0.60 | 0.60 | 1060.1 | |
| 20260506033248 | 0 | 117 | 1.0 | 2.0 | 0.00 | 0.59 | 0.59 | 1059.9 | |
| 20260506032744 | 0 | 142 | 0.0 | 2.0 | 0.00 | 0.59 | 0.59 | 1059.9 | |
| 20260506032241 | 0 | 96 | 1.0 | 2.0 | 0.00 | 0.59 | 0.59 | 1059.4 | |
| 20260506031738 | 0 | 85 | 2.0 | 3.0 | 0.05 | 0.59 | 0.59 | 1059.5 | |
| 20260506031235 | 0 | 62 | 3.0 | 5.0 | 0.19 | 0.59 | 0.59 | 1059.6 | |
| 20260506030734 | 0 | 81 | 2.0 | 2.0 | 0.19 | 0.58 | 0.58 | 1059.5 | |
| 20260506030231 | 0 | 89 | 1.0 | 3.0 | 0.05 | 0.56 | 0.56 | 1059.4 | |
| 20260506025727 | 0 | 39 | 2.0 | 3.0 | 0.00 | 0.55 | 0.55 | 1059.4 | |
| 20260506025224 | 0 | 37 | 2.0 | 5.0 | 0.12 | 0.55 | 0.55 | 1059.5 | |
| 20260506024720 | 0 | 102 | 2.0 | 5.0 | 0.12 | 0.55 | 0.55 | 1059.5 | |
| 20260506024217 | 0 | 114 | 1.0 | 3.0 | 0.00 | 0.53 | 0.53 | 1059.7 | |
| 20260506023713 | 0 | 81 | 0.0 | 2.0 | 0.07 | 0.53 | 0.53 | 1059.6 | |
| 20260506023210 | 0 | 103 | 1.0 | 3.0 | 0.07 | 0.53 | 0.53 | 1059.3 | |
| 20260506022707 | 0 | 65 | 4.0 | 6.0 | 0.00 | 0.52 | 0.52 | 1059.3 | |
| 20260506022205 | 0 | 31 | 3.0 | 6.0 | 0.12 | 0.52 | 0.52 | 1059.1 | |
| 20260506021703 | 0 | 55 | 3.0 | 3.0 | 0.12 | 0.51 | 0.51 | 1059.2 | |
| 20260506021200 | 0 | 33 | 3.0 | 5.0 | 0.17 | 0.50 | 0.50 | 1059.0 | |
| 20260506020656 | 0 | 51 | 5.0 | 8.0 | 0.05 | 0.48 | 0.48 | 1059.1 | |
| 20260506020154 | 0 | 53 | 2.0 | 5.0 | 0.00 | 0.47 | 0.47 | 1059.3 | |
| 20260506015651 | 0 | 80 | 1.0 | 2.0 | 0.07 | 0.47 | 0.47 | 1059.2 | |
| 20260506015149 | 0 | 97 | 1.0 | 2.0 | 0.19 | 0.47 | 0.47 | 1058.7 | |
| 20260506014641 | 0 | 89 | 2.0 | 3.0 | 0.31 | 0.46 | 0.46 | 1058.2 | |
| 20260506014136 | 0 | 111 | 1.0 | 2.0 | 0.35 | 0.43 | 0.43 | 1058.4 | |
| 20260506013635 | 0 | 114 | 0.0 | 1.0 | 0.35 | 0.40 | 0.40 | 1058.3 | |
| 20260506013132 | 0 | 61 | 2.0 | 3.0 | 0.54 | 0.37 | 0.37 | 1058.4 | |
| 20260506012628 | 0 | 86 | 1.0 | 5.0 | 0.54 | 0.33 | 0.33 | 1058.3 | |
| 20260506012124 | 0 | 106 | 2.0 | 3.0 | 0.35 | 0.28 | 0.28 | 1058.2 | |
| 20260506011622 | 0 | 30 | 2.0 | 3.0 | 0.31 | 0.24 | 0.24 | 1058.6 | |
| 20260506011118 | 0 | 121 | 1.0 | 3.0 | 0.54 | 0.22 | 0.22 | 1058.2 | |
| 20260506010617 | 0 | 65 | 2.0 | 7.0 | 0.52 | 0.19 | 0.19 | 1058.3 | |
| 20260506010113 | 0 | 66 | 3.0 | 3.0 | 0.19 | 0.12 | 0.12 | 1058.4 | |
| 20260506005610 | 0 | 101 | 2.0 | 5.0 | 0.26 | 0.10 | 0.10 | 1057.5 | |
| 20260506005107 | 0 | 25 | 3.0 | 5.0 | 0.24 | 0.09 | 0.09 | 1058.3 | |
| 20260506004604 | 0 | 63 | 2.0 | 5.0 | 0.05 | 0.06 | 0.06 | 1057.9 | |
| 20260506004100 | 0 | 40 | 3.0 | 5.0 | 0.00 | 0.05 | 0.05 | 1057.9 | |
| 20260506003556 | 0 | 105 | 1.0 | 2.0 | 0.00 | 0.05 | 0.05 | 1058.0 | |
| 20260506003053 | 0 | 52 | 2.0 | 6.0 | 0.00 | 0.05 | 0.05 | 1057.6 | |
| 20260506002549 | 0 | 33 | 4.0 | 6.0 | 0.00 | 0.05 | 0.05 | 1057.3 | |
| 20260506002045 | 0 | 59 | 2.0 | 6.0 | 0.00 | 0.05 | 0.05 | 1058.0 | |
| 20260506001541 | 0 | 119 | 1.0 | 3.0 | 0.00 | 0.05 | 0.05 | 1057.5 | |
| 20260506001039 | 0 | 23 | 4.0 | 6.0 | 0.00 | 0.05 | 0.05 | 1057.3 | |
| 20260506000536 | 0 | 74 | 1.0 | 3.0 | 0.00 | 0.05 | 0.05 | 1057.3 | |
| 20260506000033 | 0 | 123 | 1.0 | 6.0 | 0.00 | 0.05 | 0.05 | 1057.0 | |
| 20260505235531 | 0 | 87 | 1.0 | 5.0 | 0.00 | 0.05 | 0.05 | 1057.4 | |
| 20260505235028 | 0 | 98 | 2.0 | 6.0 | 0.00 | 0.05 | 0.05 | 1057.2 | |
| 20260505234525 | 0 | 87 | 3.0 | 3.0 | 0.00 | 0.05 | 0.05 | 1057.2 | |
| 20260505234022 | 0 | 352 | 3.0 | 5.0 | 0.00 | 0.05 | 0.05 | 1057.3 | |
| 20260505233519 | 0 | 53 | 6.0 | 7.0 | 0.00 | 0.05 | 0.05 | 1057.3 | |
| 20260505233017 | 0 | 105 | 3.0 | 5.0 | 0.00 | 0.05 | 0.05 | 1057.5 | |
| 20260505232514 | 0 | 54 | 2.0 | 5.0 | 0.00 | 0.05 | 0.05 | 1057.4 | |
| 20260505232011 | 0 | 25 | 4.0 | 8.0 | 0.00 | 0.05 | 0.05 | 1057.4 | |
| 20260505231508 | 0 | 7 | 6.0 | 8.0 | 0.00 | 0.05 | 0.05 | 1057.4 | |
| 20260505231007 | 0 | 289 | 5.0 | 6.0 | 0.00 | 0.05 | 0.05 | 1057.4 | |
| 20260505230504 | 0 | 58 | 3.0 | 6.0 | 0.07 | 0.05 | 0.05 | 1057.3 | |
| 20260505230000 | 0 | 55 | 2.0 | 7.0 | 0.07 | 0.05 | 0.05 | 1057.2 | |
| 20260505225457 | 0 | 54 | 2.0 | 3.0 | 0.00 | 0.04 | 0.04 | 1057.3 | |
| 20260505224953 | 0 | 45 | 3.0 | 5.0 | 0.00 | 0.04 | 0.04 | 1057.1 | |
| 20260505224450 | 0 | 33 | 3.0 | 6.0 | 0.00 | 0.04 | 0.04 | 1057.2 | |
| 20260505223948 | 0 | 81 | 3.0 | 5.0 | 0.00 | 0.04 | 0.04 | 1057.2 | |
| 20260505223444 | 0 | 48 | 2.0 | 6.0 | 0.00 | 0.04 | 0.04 | 1057.2 | |
| 20260505222941 | 0 | 44 | 3.0 | 6.0 | 0.00 | 0.04 | 0.04 | 1057.3 | |
| 20260505222437 | 0 | 325 | 4.0 | 7.0 | 0.00 | 0.04 | 0.04 | 1057.2 | |
| 20260505221933 | 0 | 11 | 3.0 | 6.0 | 0.00 | 0.04 | 0.04 | 1057.3 | |
| 20260505221431 | 0 | 99 | 2.0 | 5.0 | 0.05 | 0.04 | 0.04 | 1057.3 | |
| 20260505220927 | 0 | 40 | 3.0 | 7.0 | 0.05 | 0.04 | 0.04 | 1057.1 | |
| 20260505220424 | 0 | 333 | 4.0 | 5.0 | 0.00 | 0.03 | 0.03 | 1057.1 | |
| 20260505215922 | 0 | 32 | 3.0 | 6.0 | 0.07 | 0.03 | 0.03 | 1056.9 | |
| 20260505215420 | 0 | 66 | 4.0 | 6.0 | 0.07 | 0.03 | 0.03 | 1057.0 | |
| 20260505214918 | 0 | 359 | 5.0 | 8.0 | 0.00 | 0.02 | 0.02 | 1057.2 | |
| 20260505214415 | 0 | 24 | 4.0 | 5.0 | 0.00 | 0.02 | 0.02 | 1057.1 | |
| 20260505213912 | 0 | 43 | 4.0 | 7.0 | 0.00 | 0.02 | 0.02 | 1057.1 | |
| 20260505213410 | 0 | 49 | 3.0 | 8.0 | 0.05 | 0.02 | 0.02 | 1057.0 | |
| 20260505212906 | 0 | 328 | 7.0 | 10.0 | 0.05 | 0.02 | 0.02 | 1057.1 | |
| 20260505212403 | 0 | 320 | 6.0 | 9.0 | 0.07 | 0.01 | 0.01 | 1056.9 | |
| 20260505211859 | 0 | 73 | 3.0 | 6.0 | 0.07 | 0.01 | 0.01 | 1056.8 | |
| 20260505211357 | 0 | 28 | 2.0 | 5.0 | 0.00 | 0.00 | 0.00 | 1057.3 | |
| 20260505210853 | 0 | 69 | 2.0 | 6.0 | 0.00 | 0.00 | 0.00 | 1057.0 | |
| 20260505210350 | 0 | 47 | 3.0 | 7.0 | 0.00 | 0.00 | 0.00 | 1057.2 | |
| 20260505205847 | 0 | 82 | 2.0 | 8.0 | 0.00 | 0.00 | 0.00 | 1056.7 | |
| 20260505205345 | 0 | 35 | 5.0 | 8.0 | 0.00 | 0.00 | 0.00 | 1056.8 | |
| 20260505204842 | 0 | 98 | 3.0 | 7.0 | 0.00 | 0.00 | 0.00 | 1056.7 | |
| 20260505204340 | 0 | 49 | 3.0 | 7.0 | 0.00 | 0.00 | 0.00 | 1056.5 | |
| 20260505203837 | 0 | 84 | 3.0 | 6.0 | 0.00 | 0.00 | 0.00 | 1056.6 | |
| 20260505203333 | 0 | 96 | 1.0 | 6.0 | 0.00 | 0.00 | 0.00 | 1056.5 | |
| 20260505202829 | 0 | 35 | 4.0 | 8.0 | 0.00 | 0.00 | 0.00 | 1056.7 | |
| 20260505202326 | 0 | 350 | 3.0 | 5.0 | 0.00 | 0.00 | 0.00 | 1056.6 | |
| 20260505201822 | 0 | 98 | 2.0 | 5.0 | 0.00 | 0.00 | 0.00 | 1056.2 | |
| 20260505201320 | 0 | 46 | 4.0 | 5.0 | 0.00 | 0.00 | 0.00 | 1056.6 | |
| 20260505200818 | 0 | 66 | 3.0 | 6.0 | 0.00 | 0.00 | 0.00 | 1057.0 | |
| 20260505200315 | 0 | 103 | 1.0 | 3.0 | 0.00 | 0.00 | 0.00 | 1057.0 | |
| 20260505195810 | 0 | 74 | 3.0 | 6.0 | 0.00 | 0.00 | 0.00 | 1057.1 | |
| 20260505195308 | 0 | 316 | 6.0 | 8.0 | 0.00 | 0.00 | 0.00 | 1056.7 | |
| 20260505194805 | 0 | 359 | 5.0 | 6.0 | 0.00 | 0.00 | 0.00 | 1056.5 | |
| 20260505194302 | 0 | 55 | 5.0 | 8.0 | 0.00 | 0.00 | 0.00 | 1056.3 | |
| 20260505193757 | 0 | 16 | 6.0 | 11.0 | 0.00 | 0.00 | 0.00 | 1056.5 | |
| 20260505193255 | 0 | 2 | 7.0 | 13.0 | 0.00 | 0.00 | 0.00 | 1056.5 | |
| 20260505192753 | 0 | 25 | 5.0 | 9.0 | 0.00 | 0.00 | 0.00 | 1056.5 | |
| 20260505192251 | 0 | 353 | 7.0 | 10.0 | 0.00 | 0.00 | 0.00 | 1056.8 | |
| 20260505191748 | 0 | 27 | 4.0 | 9.0 | 0.00 | 0.00 | 0.00 | 1056.8 | |
| 20260505191247 | 0 | 41 | 5.0 | 7.0 | 0.00 | 0.00 | 0.00 | 1056.8 | |
| 20260505190742 | 0 | 332 | 7.0 | 9.0 | 0.00 | 0.00 | 0.00 | 1056.7 | |
| 20260505190237 | 0 | 291 | 6.0 | 7.0 | 0.00 | 0.00 | 0.00 | 1056.8 | |
| 20260505185734 | 0 | 34 | 3.0 | 7.0 | 0.00 | 0.00 | 0.00 | 1056.8 | |
| 20260505185231 | 0 | 21 | 7.0 | 9.0 | 0.00 | 0.00 | 0.00 | 1056.4 | |
| 20260505184727 | 0 | 62 | 5.0 | 10.0 | 0.00 | 0.00 | 0.00 | 1056.6 | |
| 20260505184224 | 0 | 59 | 7.0 | 9.0 | 0.00 | 0.00 | 0.00 | 1057.0 | |
| 20260505183720 | 0 | 35 | 3.0 | 6.0 | 0.00 | 0.00 | 0.00 | 1057.1 | |
| 20260505183218 | 0 | 36 | 4.0 | 9.0 | 0.00 | 0.00 | 0.00 | 1057.1 | |
| 20260505182714 | 0 | 25 | 5.0 | 7.0 | 0.00 | 0.00 | 0.00 | 1057.1 | |
| 20260505182212 | 0 | 68 | 3.0 | 7.0 | 0.00 | 0.00 | 0.00 | 1056.7 | |
| 20260505181708 | 0 | 90 | 4.0 | 7.0 | 0.00 | 0.00 | 0.00 | 1056.9 | |
| 20260505181206 | 0 | 56 | 5.0 | 7.0 | 0.00 | 0.00 | 0.00 | 1057.1 | |
| 20260505180702 | 0 | 331 | 5.0 | 7.0 | 0.00 | 0.00 | 0.00 | 1057.1 | |
| 20260505180159 | 0 | 339 | 6.0 | 9.0 | 0.00 | 0.00 | 0.00 | 1057.2 | |
| 20260505175655 | 0 | 24 | 5.0 | 7.0 | 0.00 | 0.00 | 0.00 | 1057.2 | |
| 20260505175151 | 0 | 4 | 4.0 | 10.0 | 0.00 | 0.00 | 0.00 | 1057.3 | |
| 20260505174648 | 0 | 46 | 4.0 | 7.0 | 0.00 | 0.00 | 0.00 | 1057.1 | |
| 20260505174144 | 0 | 19 | 3.0 | 5.0 | 0.00 | 0.00 | 0.00 | 1056.8 | |
| 20260505173641 | 0 | 329 | 6.0 | 7.0 | 0.00 | 0.00 | 0.00 | 1056.7 | |
| 20260505173138 | 0 | 57 | 3.0 | 8.0 | 0.00 | 0.00 | 0.00 | 1056.6 | |
| 20260505172635 | 0 | 21 | 4.0 | 6.0 | 0.00 | 0.00 | 0.00 | 1056.8 | |
| 20260505172132 | 0 | 352 | 4.0 | 6.0 | 0.00 | 0.00 | 0.00 | 1056.3 | |
| 20260505171626 | 0 | 57 | 3.0 | 6.0 | 0.00 | 0.00 | 0.00 | 1056.3 | |
| 20260505171124 | 0 | 36 | 4.0 | 7.0 | 0.00 | 0.00 | 0.00 | 1056.1 | |
| 20260505170621 | 0 | 71 | 2.0 | 7.0 | 0.00 | 0.00 | 0.00 | 1056.2 | |
| 20260505170117 | 0 | 64 | 2.0 | 7.0 | 0.00 | 0.00 | 0.00 | 1056.0 | |
| 20260505165612 | 0 | 41 | 4.0 | 6.0 | 0.00 | 0.00 | 0.00 | 1056.5 |